[[{"header":{"parameterUnit":"m.s-1","parameterCategory":1,"la1":30.2991,"la2":30.254,"lo1":-89.0895,"lo2":-89.0444,"dy":0.0017,"dx":0.0017,"nx":28,"ny":28,"refTime":"2024-10-14T21:00:00:Z","depth":0,"parameterNumber":2,"parameterNumberName":"U-component_of_WINDS"},"data":[0,0,0,0,0,0,0,0,0,0,0,0,0,0,0,0,0,0,0,0,0,0,0,0,0,0,0,0,0,0,0,0,0,0,0,0,0,0,0,0,0,0,0,0,0,0,0,0,0,0,0,0,0,0,0,0,0,0,-1.6465,-1.6465,0,-1.6474,-1.6475,-1.6475,-1.6439,-1.6437,-1.6436,-1.6435,-1.6446,-1.6447,-1.6448,0,0,0,0,0,0,0,0,0,0,0,0,0,-1.6416,-1.6417,-1.6465,-1.6465,-1.6465,-1.6474,-1.6475,-1.6475,-1.6439,-1.6437,-1.6436,-1.6435,-1.6445,-1.6447,-1.6448,0,0,0,0,0,0,0,0,0,0,0,0,0,-1.6432,-1.6417,-1.6465,-1.6448,-1.6447,-1.6474,-1.6475,-1.6475,-1.6439,-1.6437,-1.6436,-1.6434,-1.6445,-1.6447,-1.6448,-1.6493,0,0,-1.6454,-1.6455,0,0,0,0,0,0,0,0,-1.6431,-1.6434,-1.6451,-1.645,-1.6448,-1.6454,-1.6461,-1.6481,-1.6439,-1.6442,-1.6435,-1.6433,-1.645,-1.6451,-1.6456,-1.6493,-1.6493,-1.6454,-1.6456,-1.6456,-1.6457,0,0,0,0,0,0,0,-1.643,-1.6434,-1.6469,-1.6451,-1.6449,-1.644,-1.6441,-1.6465,-1.6455,-1.6442,-1.6439,-1.6441,-1.6449,-1.6455,-1.6456,-1.6494,-1.6454,-1.6456,-1.6457,-1.6458,-1.6566,-1.6568,0,0,0,0,0,0,-1.6431,-1.6433,-1.6468,-1.6469,-1.6436,-1.6443,-1.6443,-1.6453,-1.6454,-1.6453,-1.6442,-1.6439,-1.6452,-1.6454,-1.6457,-1.6508,-1.6456,-1.6458,-1.6459,-1.6565,-1.6567,-1.6569,0,0,0,0,0,0,-1.643,-1.6435,-1.6468,-1.645,-1.6454,-1.6445,-1.6457,-1.6455,-1.646,-1.6455,-1.6453,-1.645,-1.6451,-1.6454,-1.6484,-1.6508,-1.6459,-1.6461,-1.6563,-1.6565,-1.6568,-1.6612,0,0,0,0,0,0,-1.6429,-1.6435,-1.6452,-1.6451,-1.6455,-1.6495,-1.6458,-1.6456,-1.6464,-1.646,-1.6462,-1.646,-1.645,-1.6481,-1.6486,-1.651,-1.6462,-1.656,-1.6564,-1.6567,-1.6608,-1.6615,-1.6622,0,0,0,0,0,-1.6428,-1.6464,-1.6453,-1.6457,-1.6476,-1.6497,-1.6499,-1.6486,-1.6466,-1.6483,-1.6479,-1.646,-1.6504,-1.6484,-1.6489,-1.6514,-1.6559,-1.6563,-1.6567,-1.6605,-1.6614,-1.6622,0,0,0,0,0,0,-1.6468,-1.6463,-1.6451,-1.6488,-1.6493,-1.6491,-1.6511,-1.6496,-1.6507,-1.6503,-1.6486,-1.6487,-1.652,-1.652,-1.6498,-1.6557,-1.6528,-1.6533,-1.6556,-1.6564,-1.6571,-1.657,-1.6464,0,0,0,0,0,-1.6481,-1.6499,-1.6494,-1.6527,-1.653,-1.652,-1.6529,-1.6518,-1.6523,-1.6525,-1.6523,-1.6529,-1.6543,-1.6554,-1.6567,-1.6607,-1.6607,-1.6627,-1.6634,-1.664,-1.6644,-1.6665,-1.6674,-1.6581,-1.6581,-1.6581,0,0,-1.6509,-1.6508,-1.6521,-1.6535,-1.6538,-1.6556,-1.6522,-1.6543,-1.6557,-1.6528,-1.6556,-1.6555,-1.656,-1.6595,-1.661,-1.6596,-1.667,-1.6645,-1.6649,-1.6651,-1.667,-1.6679,-1.6687,-1.6584,-1.6583,-1.6583,0,0,-1.6569,-1.657,-1.6598,-1.6601,-1.6605,-1.6598,-1.6605,-1.6604,-1.6602,-1.663,-1.6609,-1.6624,-1.6651,-1.6655,-1.666,-1.672,-1.6704,-1.6725,-1.6761,-1.6782,-1.6789,-1.6796,-1.6817,-1.6825,-1.673,-1.673,-1.673,0,-1.6603,-1.6629,-1.6614,-1.6636,-1.6643,-1.6617,-1.6645,-1.6649,-1.6657,-1.6663,-1.6646,-1.6678,-1.6679,-1.6715,-1.673,-1.6735,-1.6742,-1.6725,-1.679,-1.6796,-1.6802,-1.6822,-1.683,-1.6733,-1.6732,-1.6732,-1.6732,0,-1.6671,-1.6689,-1.6711,-1.672,-1.6729,-1.6754,-1.6742,-1.6753,-1.6742,-1.6737,-1.6765,-1.6765,-1.6778,-1.6786,-1.6775,-1.682,-1.6811,-1.6792,-1.6763,-1.6813,-1.6832,-1.684,-1.6736,-1.6735,-1.6735,-1.6734,0,0,-1.6757,-1.6756,-1.6764,-1.6767,-1.677,-1.6784,-1.6807,-1.682,-1.683,-1.6836,-1.6855,-1.6878,-1.686,-1.6866,-1.6856,-1.6874,-1.6921,-1.6853,-1.6853,-1.6866,-1.6971,-1.6985,-1.6994,-1.691,-1.6911,-1.6912,-1.697,0,-1.6816,-1.6856,-1.6842,-1.6883,-1.69,-1.6876,-1.6896,-1.69,-1.6895,-1.6909,-1.6904,-1.692,-1.6896,-1.6899,-1.6916,-1.6912,-1.6942,-1.6907,-1.6928,-1.6929,-1.6928,-1.7004,-1.7019,-1.7074,-1.6978,-1.6979,-1.698,0,-1.689,-1.6899,-1.6941,-1.694,-1.6947,-1.6965,-1.6975,-1.6988,-1.6992,-1.6987,-1.6994,-1.6979,-1.7002,-1.6972,-1.7003,-1.698,-1.6987,-1.6987,-1.6988,-1.699,-1.6958,-1.7008,-1.7091,-1.7099,-1.6991,-1.699,-1.6989,0,-1.6949,-1.6972,-1.7,-1.7003,-1.7002,-1.7016,-1.7016,-1.7018,-1.7026,-1.7034,-1.7039,-1.705,-1.7057,-1.7066,-1.7054,-1.7034,-1.7087,-1.7057,-1.7084,-1.7084,-1.7097,-1.7096,-1.7182,-1.7101,-1.7101,-1.7101,-1.7101,0,-1.7016,-1.7043,-1.7026,-1.7044,-1.7073,-1.7057,-1.7086,-1.7084,-1.7085,-1.7102,-1.7081,-1.7097,-1.708,-1.7094,-1.7085,-1.7113,-1.7116,-1.7113,-1.711,-1.7115,-1.7115,-1.712,-1.7116,-1.7103,-1.7102,-1.7102,-1.7102,0,-1.7088,-1.7077,-1.7106,-1.7103,-1.7102,-1.7124,-1.7121,-1.7137,-1.713,-1.7151,-1.7155,-1.7146,-1.7161,-1.715,-1.7166,-1.716,-1.7196,-1.7188,-1.7195,-1.7193,-1.7221,-1.7218,-1.7313,-1.7325,-1.7236,-1.7237,-1.7237,0,-1.7132,-1.7152,-1.715,-1.7159,-1.7161,-1.7176,-1.7184,-1.7168,-1.7177,-1.7182,-1.7197,-1.7211,-1.7221,-1.7248,-1.7242,-1.7254,-1.7246,-1.7278,-1.7248,-1.7252,-1.7247,-1.7246,-1.7248,-1.7285,-1.7286,-1.7287,-1.7287,0,-1.7211,-1.7204,-1.7216,-1.7226,-1.7236,-1.7243,-1.7249,-1.7258,-1.7242,-1.7253,-1.7269,-1.7277,-1.7292,-1.7306,-1.7316,-1.7316,-1.7299,-1.7297,-1.7304,-1.7309,-1.7312,-1.7311,-1.7212,-1.7295,-1.7294,-1.7294,-1.7293,-1.7293,-1.727,-1.7286,-1.7287,-1.7301,-1.7303,-1.7309,-1.7324,-1.7319,-1.7331,-1.7343,-1.7333,-1.7351,-1.7353,-1.7364,-1.7366,-1.7381,-1.7367,-1.7377,-1.738,-1.7383,-1.7387,-1.731,-1.7382,-1.7382,-1.7382,-1.7382,-1.7381,0,-1.7348,-1.7347,-1.736,-1.7368,-1.7379,-1.7361,-1.7366,-1.7377,-1.7393,-1.7396,-1.7406,-1.7424,-1.7437,-1.7432,-1.7444,-1.7456,-1.7449,-1.746,-1.7459,-1.7459,-1.7398,-1.7391,-1.7465,-1.7465,-1.7465,-1.7465,-1.7465,-1.7465,-1.739,-1.7416,-1.741,-1.7438,-1.7437,-1.7454,-1.7459,-1.7464,-1.7466,-1.7486,-1.7497,-1.7493,-1.7493,-1.7504,-1.7516,-1.7514,-1.7519,-1.7533,-1.7529,-1.7472,-1.7464,-1.7456,-1.7449,-1.7534,-1.7534,-1.7588,-1.7589,-1.7589]},{"header":{"parameterUnit":"m.s-1","parameterCategory":1,"la1":30.2991,"la2":30.254,"lo1":-89.0895,"lo2":-89.0444,"dy":0.0017,"dx":0.0017,"nx":28,"ny":28,"refTime":"2024-10-14T21:00:00:Z","depth":0,"parameterNumber":3,"parameterNumberName":"V-component_of_WINDS"},"data":[0,0,0,0,0,0,0,0,0,0,0,0,0,0,0,0,0,0,0,0,0,0,0,0,0,0,0,0,0,0,0,0,0,0,0,0,0,0,0,0,0,0,0,0,0,0,0,0,0,0,0,0,0,0,0,0,0,0,-7.3214,-7.3215,0,-7.3273,-7.3274,-7.3275,-7.3216,-7.3213,-7.3211,-7.3209,-7.3264,-7.3268,-7.3271,0,0,0,0,0,0,0,0,0,0,0,0,0,-7.3045,-7.3049,-7.3214,-7.3215,-7.3216,-7.3273,-7.3274,-7.3275,-7.3216,-7.3213,-7.3211,-7.3208,-7.3263,-7.3267,-7.3272,0,0,0,0,0,0,0,0,0,0,0,0,0,-7.3113,-7.305,-7.3214,-7.3193,-7.3192,-7.3273,-7.3274,-7.3275,-7.3217,-7.3213,-7.321,-7.3207,-7.3261,-7.3267,-7.3272,-7.3375,0,0,-7.3289,-7.3291,0,0,0,0,0,0,0,0,-7.3109,-7.3119,-7.3196,-7.3195,-7.3194,-7.3234,-7.3235,-7.3308,-7.3218,-7.3207,-7.3209,-7.3205,-7.3256,-7.3262,-7.3281,-7.3377,-7.338,-7.3289,-7.3292,-7.3295,-7.3296,0,0,0,0,0,0,0,-7.3105,-7.3116,-7.3237,-7.3197,-7.3196,-7.318,-7.3185,-7.3248,-7.325,-7.3208,-7.3204,-7.3212,-7.3255,-7.3275,-7.3281,-7.338,-7.3289,-7.3294,-7.3297,-7.3299,-7.3564,-7.3568,0,0,0,0,0,0,-7.3103,-7.3113,-7.3235,-7.3239,-7.3142,-7.3186,-7.3192,-7.3224,-7.325,-7.325,-7.3215,-7.3209,-7.3268,-7.3275,-7.3283,-7.3405,-7.3295,-7.33,-7.3303,-7.3561,-7.3565,-7.3569,0,0,0,0,0,0,-7.3099,-7.3114,-7.3233,-7.3175,-7.3189,-7.3192,-7.3229,-7.3227,-7.3248,-7.3255,-7.3254,-7.3236,-7.3265,-7.3275,-7.3353,-7.3406,-7.3302,-7.3307,-7.3556,-7.3562,-7.3567,-7.365,0,0,0,0,0,0,-7.3095,-7.3114,-7.3154,-7.3176,-7.3192,-7.3304,-7.3232,-7.3231,-7.3258,-7.3251,-7.3274,-7.3275,-7.3264,-7.3345,-7.3358,-7.3412,-7.3311,-7.3551,-7.3559,-7.3566,-7.3643,-7.3658,-7.3671,0,0,0,0,0,-7.3089,-7.3173,-7.3156,-7.3171,-7.3243,-7.3307,-7.3316,-7.3303,-7.3262,-7.3302,-7.3307,-7.3274,-7.3399,-7.3354,-7.3368,-7.3424,-7.3548,-7.3557,-7.3565,-7.3636,-7.3655,-7.3671,0,0,0,0,0,0,-7.3154,-7.3176,-7.3157,-7.3251,-7.3278,-7.3297,-7.3346,-7.3323,-7.336,-7.3352,-7.3332,-7.3338,-7.342,-7.343,-7.3379,-7.3525,-7.3466,-7.3478,-7.3516,-7.3533,-7.3547,-7.3543,-7.3316,0,0,0,0,0,-7.318,-7.3232,-7.3247,-7.3328,-7.3343,-7.3343,-7.337,-7.3358,-7.3384,-7.3395,-7.3405,-7.343,-7.3475,-7.3505,-7.3546,-7.3644,-7.3648,-7.3689,-7.3704,-7.3715,-7.3726,-7.3778,-7.3797,-7.3597,-7.3597,-7.3597,0,0,-7.3232,-7.325,-7.3284,-7.3342,-7.3361,-7.3414,-7.3352,-7.3411,-7.3449,-7.3403,-7.3477,-7.3486,-7.3512,-7.3601,-7.364,-7.3611,-7.3782,-7.3726,-7.3735,-7.3739,-7.3789,-7.3808,-7.3825,-7.3603,-7.3602,-7.3601,0,0,-7.3355,-7.3375,-7.3445,-7.3467,-7.3498,-7.3497,-7.3514,-7.3538,-7.3542,-7.3617,-7.3583,-7.3628,-7.3706,-7.3727,-7.3747,-7.388,-7.3851,-7.3894,-7.3968,-7.402,-7.4036,-7.4049,-7.4097,-7.4114,-7.3905,-7.3905,-7.3905,0,-7.3416,-7.3497,-7.3484,-7.3546,-7.3572,-7.3535,-7.3606,-7.3626,-7.3668,-7.3687,-7.3654,-7.3752,-7.3767,-7.386,-7.3893,-7.3911,-7.3929,-7.3891,-7.4035,-7.4048,-7.4061,-7.4106,-7.4124,-7.391,-7.3909,-7.3909,-7.3908,0,-7.357,-7.3626,-7.3679,-7.3724,-7.3756,-7.3822,-7.3818,-7.3852,-7.3838,-7.384,-7.3917,-7.3934,-7.3979,-7.4,-7.3986,-7.4091,-7.4073,-7.4038,-7.3979,-7.4085,-7.4127,-7.4145,-7.3917,-7.3915,-7.3914,-7.3912,0,0,-7.3734,-7.3773,-7.3793,-7.3813,-7.3845,-7.3888,-7.3951,-7.3998,-7.4027,-7.4058,-7.411,-7.4178,-7.4146,-7.417,-7.4157,-7.4203,-7.4308,-7.4162,-7.4163,-7.4189,-7.4425,-7.4451,-7.4471,-7.4289,-7.4292,-7.4295,-7.4423,0,-7.3859,-7.3972,-7.3964,-7.407,-7.4122,-7.4088,-7.4143,-7.4169,-7.4173,-7.4216,-7.422,-7.4268,-7.4223,-7.4237,-7.4281,-7.4286,-7.4355,-7.4276,-7.4336,-7.4339,-7.4331,-7.4493,-7.4521,-7.4641,-7.4439,-7.4442,-7.4444,0,-7.4019,-7.4058,-7.4171,-7.4197,-7.4218,-7.4268,-7.431,-7.4352,-7.438,-7.438,-7.4408,-7.4388,-7.4451,-7.4392,-7.4478,-7.4425,-7.4449,-7.4455,-7.4459,-7.4464,-7.4398,-7.4502,-7.4678,-7.4697,-7.447,-7.4468,-7.4466,0,-7.4128,-7.4208,-7.4286,-7.4305,-7.4337,-7.4373,-7.4388,-7.4412,-7.4441,-7.4477,-7.4495,-7.4537,-7.4561,-7.4593,-7.4585,-7.4542,-7.4673,-7.4613,-7.4674,-7.4675,-7.4703,-7.4701,-7.4885,-7.4719,-7.4719,-7.4718,-7.4718,0,-7.4268,-7.4338,-7.4336,-7.4384,-7.4461,-7.445,-7.4526,-7.4536,-7.4559,-7.4607,-7.4579,-7.4625,-7.4612,-7.4656,-7.465,-7.4722,-7.4733,-7.4734,-7.4731,-7.4736,-7.4736,-7.4751,-7.4743,-7.4723,-7.4722,-7.4721,-7.472,0,-7.4402,-7.4404,-7.4487,-7.4511,-7.4519,-7.4575,-7.4595,-7.464,-7.4642,-7.4704,-7.4717,-7.4721,-7.4772,-7.4768,-7.4825,-7.482,-7.491,-7.4898,-7.4902,-7.4899,-7.4961,-7.4955,-7.5161,-7.5187,-7.5004,-7.5006,-7.5007,0,-7.4491,-7.4545,-7.4576,-7.4608,-7.4626,-7.4676,-7.4706,-7.4697,-7.4729,-7.4765,-7.4806,-7.4855,-7.4893,-7.4977,-7.4983,-7.5027,-7.5015,-7.5084,-7.5021,-7.5025,-7.5016,-7.5013,-7.5018,-7.5096,-7.5098,-7.51,-7.5101,0,-7.4649,-7.4648,-7.4693,-7.474,-7.4777,-7.4812,-7.4844,-7.4871,-7.4865,-7.4902,-7.4956,-7.4986,-7.5045,-7.5094,-7.5136,-7.5149,-7.5124,-7.5121,-7.5138,-7.5143,-7.5144,-7.5144,-7.4936,-7.5116,-7.5115,-7.5114,-7.5113,-7.5112,-7.4763,-7.481,-7.484,-7.4891,-7.4915,-7.4946,-7.499,-7.5,-7.5045,-7.5094,-7.5085,-7.5145,-7.5171,-7.5225,-7.5242,-7.5288,-7.5263,-7.5286,-7.5292,-7.5298,-7.5306,-7.5137,-7.5295,-7.5295,-7.5294,-7.5294,-7.5294,0,-7.492,-7.4938,-7.4986,-7.5033,-7.5074,-7.505,-7.5084,-7.5119,-7.5173,-7.5201,-7.5241,-7.5302,-7.535,-7.5361,-7.5406,-7.5441,-7.5431,-7.5453,-7.545,-7.5454,-7.5326,-7.5307,-7.5461,-7.5461,-7.546,-7.546,-7.546,-7.546,-7.5006,-7.5084,-7.5086,-7.5175,-7.5192,-7.5253,-7.5275,-7.5303,-7.5325,-7.5396,-7.5437,-7.5444,-7.5465,-7.5512,-7.5555,-7.5557,-7.5574,-7.5602,-7.5599,-7.5479,-7.5462,-7.5446,-7.5429,-7.5606,-7.5606,-7.5723,-7.5724,-7.5725]}]]